Location: Adaghas
(31.2259°N, 9.0496°W)
Time: 04:11:02
(UTC+00:00)

Cosmos 2150 Rocket - Pass Details

Date: 18 September 2020
Orbit: 748 x 808 km, 74.0° (Epoch: 23 October)

Event Time Altitude Azimuth Distance (km) Brightness Sun altitude
Rises 20:21:59 0° 202° (SSW) 3,237 7.3 -22.8°
Reaches altitude 10° 20:24:21 10° 204° (SSW) 2,323 6.6 -23.3°
Maximum altitude 20:29:37 67° 287° (WNW) 852 4.3 -24.4°
Drops below altitude 10° 20:34:59 10° 10° (N) 2,373 6.6 -25.5°
Sets 20:37:26 0° 13° (NNE) 3,313 7.4 -26.0°
